This demonstration page uses our WeatherBlox Daily Observations layout. Learn more.

41.55636, -103.73856

Hourly Observations for December 25, 2016

Temp ( °F °C ) Dew Point ( °F °C ) Humidity (%) Winds ( mph kmh ) Pressure ( in mb ) Visibility ( mi km ) Precip ( " mm )
12:53 am 00:53 Clear 28 -2.2 24 -4.4 85 85 ESE 13 20 29.59 1002 10 16.0934 0 0
1:53 am 01:53 Clear 29 -1.7 25 -3.9 85 85 ESE 17 28 29.55 1001 10 16.0934 0 0
2:48 am 02:48 Mostly Clear 28 -2 25 -4 86 86 ESE 14 22 29.65 1004 9 14.48406 0 0
2:53 am 02:53 Mostly Clear 28 -2.2 25 -3.9 88 88 ESE 15 24 29.54 1000 9 14.48406 0 0
3:04 am 03:04 Mostly Cloudy 28 -2 27 -3 93 93 ESE 20 31 29.65 1004 8 12.87472 0 0
3:53 am 03:53 Cloudy with Mist and Fog 30 -1.1 28 -2.2 92 92 ESE 17 28 29.5 999 3 4.82802 0 0
4:37 am 04:37 Cloudy with Mist and Fog 31 -0.6 29 -1.7 92 92 E 16 26 29.62 1003 2.5 4.02335 0 0
4:53 am 04:53 Cloudy with Mist and Fog 31 -0.6 29 -1.7 92 92 ESE 18 30 29.49 999 3 4.82802 0 0
5:23 am 05:23 Cloudy with Mist and Fog 32 0 29 -1.7 88 88 ESE 16 26 29.59 1002 2.5 4.02335 0 0
5:35 am 05:35 Cloudy with Mist and Fog 32 0 30 -1.1 92 92 ESE 16 26 29.59 1002 1.5 2.41401 0 0
5:53 am 05:53 Cloudy with Light Wintry Mix 32 0 30 -1.1 92 92 E 13 20 29.48 998 0.75 1.207005 0 0.0254
6:01 am 06:01 Cloudy with Light Freezing Rain 32 0 31 -0.6 96 96 E 13 20 29.56 1001 0.75 1.207005 0.01 0.254
6:05 am 06:05 Cloudy with Freezing Rain 32 0 31 -0.6 96 96 E 14 22 29.56 1001 1 1.60934 0.03 0.762
6:09 am 06:09 Cloudy with Light Freezing Rain 34 1 30 -1 87 87 E 14 22 29.56 1001 1.25 2.011675 0 0
6:20 am 06:20 Cloudy with Thunderstorms 34 1 30 -1 87 87 ESE 13 20 29.59 1002 1.75 2.816345 0 0
6:31 am 06:31 Cloudy with Light Thunderstorms 33 0.6 31 -0.6 92 92 E 10 17 29.56 1001 3 4.82802 0.21 5.334
6:40 am 06:40 Cloudy with Light Freezing Rain 34 1 30 -1 87 87 E 10 17 29.56 1001 4 6.43736 0 0
6:43 am 06:43 Cloudy with Light Freezing Rain 33 0.6 31 -0.6 92 92 E 9 15 29.56 1001 5 8.0467 0.21 5.334
6:49 am 06:49 Cloudy with Light Freezing Rain 34 1 30 -1 87 87 E 9 15 29.56 1001 5 8.0467 0.21 5.334
6:53 am 06:53 Cloudy with Light Freezing Rain 33 0.6 31 -0.6 92 92 E 9 15 29.45 997 5 8.0467 0.21 5.334
7:18 am 07:18 Cloudy 34 1 30 -1 87 87 E 10 17 29.5 999 7 11.26538 0 0
7:25 am 07:25 Cloudy with Light Rain 33 0.6 31 -0.6 92 92 ENE 20 31 29.44 997 6 9.65604 0.01 0.254
7:37 am 07:37 Cloudy with Light Rain 34 1.1 32 0 92 92 ENE 16 26 29.44 997 5 8.0467 0.01 0.254
7:53 am 07:53 Cloudy with Mist and Fog 35 1.7 33 0.6 93 93 E 10 17 29.38 995 5 8.0467 0.01 0.254
8:30 am 08:30 Cloudy with Mist and Fog 34 1 34 1 100 100 W 8 13 29.44 997 1.75 2.816345 0 0
8:50 am 08:50 Cloudy with Mist and Fog 34 1 34 1 100 100 WNW 9 15 29.44 997 3 4.82802 0 0
8:53 am 08:53 Cloudy with Mist and Fog 34 1.1 32 0 92 92 WNW 8 13 29.38 995 4 6.43736 0 0
9:24 am 09:24 Cloudy 36 2 34 1 93 93 N 7 11 29.41 996 7 11.26538 0 0
9:53 am 09:53 Cloudy with Mist and Fog 35 1.7 32 0 89 89 WNW 10 17 29.39 995 6 9.65604 0 0
10:03 am 10:03 Cloudy with Mist and Fog 34 1 32 0 93 93 undefined N/A 29.44 997 5 8.0467 0 0
10:17 am 10:17 Cloudy with Mist and Fog 35 1.7 33 0.6 93 93 undefined N/A 29.38 995 1.75 2.816345 0 0
10:26 am 10:26 Cloudy with Light Rain 30 -1 27 -3 86 86 N 23 37 29.44 997 3 4.82802 0 0
10:53 am 10:53 Cloudy 25 -3.9 21 -6.1 85 85 N 24 39 29.35 994 7 11.26538 0 0.0254
11:16 am 11:16 Windy with Snow Likely 25 -4 21 -6 86 86 N 21 33 29.44 997 2.5 4.02335 0 0
11:23 am 11:23 Cloudy with Light Snow 24 -4.4 20 -6.7 84 84 WNW 12 19 29.47 998 4 6.43736 0.01 0.254
11:45 am 11:45 Windy with Snow Likely 24 -4.4 20 -6.7 84 84 NW 21 33 29.47 998 2 3.21868 0.02 0.508
11:53 am 11:53 Windy with Snow Likely 24 -4.4 20 -6.7 84 84 WNW 24 39 29.39 995 1.25 2.011675 0.02 0.508
12:16 pm 12:16 Cloudy with Snow 21 -6 16 -9 80 80 WNW 31 50 29.53 1000 0.5 0.80467 0 0
12:20 pm 12:20 Cloudy with Snow 19 -7 16 -9 86 86 NW 30 48 29.53 1000 0.25 0.402335 0 0
12:53 pm 12:53 Mostly Cloudy with Snow 19 -7.2 15 -9.4 84 84 NW 31 50 29.4 996 0.25 0.402335 0.05 1.27
1:53 pm 13:53 Mostly Cloudy with Heavy Snow 17 -8.3 12 -11.1 80 80 NW 30 48 29.42 996 0.25 0.402335 0.04 1.016
2:53 pm 14:53 Mostly Cloudy with Heavy Snow 14 -10 9 -12.8 80 80 NW 40 65 29.46 998 0.25 0.402335 0.01 0.254
3:03 pm 15:03 Mostly Cloudy with Heavy Snow 14 -10 9 -13 79 79 WNW 36 57 29.62 1003 0.25 0.402335 0 0
3:13 pm 15:13 Mostly Cloudy with Snow 14 -10 9 -12.8 80 80 NW 38 61 29.65 1004 0.5 0.80467 0.01 0.254
3:40 pm 15:40 Windy with Snow Likely 14 -10 9 -13 79 79 NW 32 52 29.65 1004 1.5 2.41401 0 0
3:44 pm 15:44 Windy with Snow Likely 14 -10 9 -13 79 79 NW 31 50 29.68 1005 2 3.21868 0 0
3:53 pm 15:53 Windy with Snow Likely 14 -10 8 -13.3 77 77 WNW 31 50 29.52 1000 2.5 4.02335 0.01 0.254
4:10 pm 16:10 Cloudy with Blowing Snow 12 -11 7 -14 79 79 NW 29 46 29.74 1007 1.75 2.816345 0 0
4:14 pm 16:14 Cloudy with Blowing Snow 12 -11 7 -14 79 79 WNW 30 48 29.74 1007 3 4.82802 0 0
4:53 pm 16:53 Cloudy 13 -10.6 5 -15 70 70 WNW 25 41 29.59 1002 10 16.0934 0 0.0254
5:53 pm 17:53 Cloudy 13 -10.6 4 -15.6 67 67 NW 25 41 29.62 1003 10 16.0934 0 0
6:53 pm 18:53 Cloudy 13 -10.6 4 -15.6 67 67 NW 29 46 29.66 1005 10 16.0934 0 0
7:53 pm 19:53 Cloudy 13 -10.6 3 -16.1 64 64 WNW 28 44 29.72 1006 10 16.0934 0 0
8:53 pm 20:53 Cloudy 13 -10.6 3 -16.1 64 64 WNW 23 37 29.78 1008 10 16.0934 0 0
9:46 pm 21:46 Windy with Snow Likely 12 -11 5 -15 73 73 WNW 24 39 29.97 1015 2 3.21868 0 0
9:53 pm 21:53 Windy with Snow Likely 12 -11.1 5 -15 73 73 NW 26 43 29.82 1010 2.5 4.02335 0 0.0254
10:04 pm 22:04 Windy with Snow Likely 12 -11 5 -15 73 73 NW 23 37 29.97 1015 3 4.82802 0 0
10:36 pm 22:36 Windy with Snow Likely 12 -11 3 -16 67 67 WNW 25 41 30.03 1017 3 4.82802 0 0
10:53 pm 22:53 Cloudy with Haze 12 -11.1 4 -15.6 70 70 WNW 22 35 29.88 1012 6 9.65604 0 0.0254
11:38 pm 23:38 Cloudy 12 -11 5 -15 73 73 WNW 18 30 30.03 1017 10 16.0934 0 0
11:53 pm 23:53 Cloudy 11 -11.7 5 -15 77 77 WNW 15 24 29.89 1012 10 16.0934 0 0

Powered by AerisWeather